Overview Statistics Trail Chart Weather Telemetry Raw packets
 

This is the latest recevied weather packets stored in our database for station/object SV3AQT-13. If no packets are shown the sender has not sent any weather packets the latest 10 day(s).

<< 16 17 18 19 20 21 22 >>
Time Temp. Humidity Pressure Rain* Wind** Luminosity Snow
1788542761 25.56° C 77% 1017.2 hPa 0 mm 0 m/s - -
1788542581 26.11° C 77% 1017.2 hPa 0 mm 0 m/s - -
1788542401 26.11° C 79% 1017.2 hPa 0 mm 0 m/s - -
1788542222 26.11° C 78% 1017.2 hPa 0 mm 0 m/s - -
1788542041 26.11° C 77% 1017.2 hPa 0 mm 0 m/s - -
1788541862 26.67° C 74% 1017.2 hPa 0 mm 0 m/s - -
1788541681 27.22° C 72% 1017.2 hPa 0 mm 0 m/s - -
1788541501 27.22° C 71% 1017.2 hPa 0 mm 0 m/s - -
1788541343 27.78° C 70% 1017.2 hPa 0 mm 0 m/s - -
1788541141 27.78° C 70% 1017.2 hPa 0 mm 0 m/s - -
1788540961 27.78° C 69% 1017.2 hPa 0 mm 0 m/s - -
1788540781 28.33° C 66% 1017.2 hPa 0 mm 0 m/s - -
1788540602 28.33° C 65% 1017.2 hPa 0 mm 0 m/s - -
1788540421 28.33° C 62% 1017.2 hPa 0 mm 0 m/s - -
1788540242 28.33° C 66% 1017.2 hPa 0 mm 0.45 m/s, 85° - -
1788540061 27.78° C 76% 1017.2 hPa 0 mm 0 m/s - -
1788539881 27.78° C 75% 1017.2 hPa 0 mm 0 m/s - -
1788539702 27.78° C 77% 1017.2 hPa 0 mm 0 m/s - -
1788539521 28.33° C 75% 1017.2 hPa 0 mm 0 m/s - -
1788539342 28.89° C 72% 1017.2 hPa 0 mm 0 m/s - -
1788539162 28.33° C 69% 1017.2 hPa 0 mm 0 m/s - -
1788538982 28.89° C 71% 1017.2 hPa 0 mm 0 m/s - -
1788538802 29.44° C 69% 1017.2 hPa 0 mm 0 m/s - -
1788538621 29.44° C 68% 1017.2 hPa 0 mm 0 m/s - -
1788538441 29.44° C 65% 1017.2 hPa 0 mm 0 m/s - -

* Rain latest hour (hover to see other rain measurements)
** Current wind speed in m/s (hover to see current wind gust speed)